BEIDOU-3 M23 (C45)

Last updated on Sat Aug 15 2026 00:03:26 GMT+0000 (Coordinated Universal Time)

1 44543U 19061B 26225.55164479 .00000005 00000+0 00000+0 0 9998 2 44543 54.3947 180.7622 0005973 348.8730 185.1984 1.86227749 46863
UTC large
Height (km)
Speed (km/s)
/
Latitude / Longitude
Inclination (degrees)
Orbital Period (minutes)
Azimuth
Elevation
Range (km)
Doppler Factor

Next 0 passes for location: London (51.5072 / 0.1276)

No passes found over London.
BEIDOU-3 M23 (C45)